Regional Weather Roundup
Issued by NWS

Home | Current Version | Previous Version | Text Only | Print | Product List | Glossary Off
Versions: 1 2 3 4 5 6 7 8 9 10 11 12 13 14 15 16 17 18 19 20 21 22 23 24 25 26 27 28 29 30 31 32 33 34 35 36 37 38 39 40 41 42 43 44 45 46 47 48 49 50

000
ASUS43 KMKX 151759
RWRWI

WISCONSIN REGIONAL WEATHER ROUNDUP
NATIONAL WEATHER SERVICE MILWAUKEE/SULLIVAN WI
1200 PM CST FRI DEC 15 2017

NOTE: "FAIR" INDICATES FEW OR NO CLOUDS BELOW 12,000 FEET WITH NO
SIGNIFICANT WEATHER AND/OR OBSTRUCTIONS TO VISIBILITY.

WIZ001-002-006>008-014>016-023>028-151900-
NORTHWEST WISCONSIN

CITY           SKY/WX    TMP DP  RH WIND       PRES   REMARKS
SUPERIOR ARPT  PTSUNNY   15   5  64 W8        29.88F WCI   4
ASHLAND        CLOUDY    15   5  64 NW10      29.85F WCI   2
6HR MIN TEMP:  14; 6HR MAX TEMP:  15; 6HR PCP: TRACE;

HAYWARD        PTSUNNY   16   6  65 W6        29.83F WCI   7
6HR MIN TEMP:  14; 6HR MAX TEMP:  16; 6HR PCP: TRACE;

SIREN          PTSUNNY   17   8  67 NW3       29.86F
CUMBERLAND     CLOUDY    14   9  79 NW3       29.84F
RICE LAKE      CLOUDY    16   8  72 CALM      29.87F
CHETEK         CLOUDY    16   8  70 CALM      29.86F
LADYSMITH      PTSUNNY   17   8  68 W7        29.85F WCI   7
EAU CLAIRE     CLOUDY    19  12  74 NW8       29.86F WCI   9
6HR MIN TEMP:  16; 6HR MAX TEMP:  19;

MENOMONIE      CLOUDY    22  14  71 W3        29.87F
6HR MIN TEMP:  19; 6HR MAX TEMP:  22;

NEW RICHMOND   CLOUDY    19  10  68 CALM      29.87F
OSCEOLA        CLOUDY    19  12  73 NW6       29.91S WCI  11
$$

WIZ003>005-009-010-017-018-151900-
NORTH CENTRAL WISCONSIN

CITY           SKY/WX    TMP DP  RH WIND       PRES   REMARKS
MANITOWISH WTR FLURRIES  13   6  74 W14       29.76F WCI  -3
ARBOR VITAE    LGT SNOW  14   9  78 W9        29.76S WCI   2
WOODRUFF       LGT SNOW  14   9  78 W9        29.76S WCI   2
RHINELANDER    CLOUDY    14   7  73 W9        29.77S WCI   2
6HR MIN TEMP:  11; 6HR MAX TEMP:  14; 6HR PCP: TRACE;

EAGLE RIVER    FLURRIES  15   6  69 W13       29.74S WCI   1
6HR MIN TEMP:  11; 6HR MAX TEMP:  15;

LAND O LAKES   PTSUNNY   19   9  67 NW10      29.74S WCI   7
6HR MIN TEMP:  12; 6HR MAX TEMP:  19;

PHILLIPS       FLURRIES  13   5  73 W5        29.80S WCI   5
TOMAHAWK       LGT SNOW  14   8  76 W8        29.79F WCI   3
MEDFORD        FLURRIES  14   7  74 NW7       29.80F WCI   4
MERRILL        FLURRIES  16   9  73 W5        29.81F WCI   9
$$

WIZ029-030-035-036-043>047-151900-
CENTRAL WISCONSIN

CITY           SKY/WX    TMP DP  RH WIND       PRES   REMARKS
WAUSAU         CLOUDY    16   7  67 W13       29.80F WCI   2
6HR MIN TEMP:  15; 6HR MAX TEMP:  17; 6HR PCP: TRACE;

MOSINEE        CLOUDY    16   9  73 NW9       29.83F WCI   4
MARSHFIELD     MOSUNNY   17   8  67 W10       29.82S WCI   5
6HR MIN TEMP:  14; 6HR MAX TEMP:  18; 6HR PCP: TRACE;

STEVENS POINT  FLURRIES  16   8  72 W6        29.84F WCI   7
WAUPACA        CLOUDY    23  11  60 W8        29.85F WCI  14
WAUTOMA        FLURRIES  22  12  65 W15G24    29.85F WCI   9
6HR MIN TEMP:  19; 6HR MAX TEMP:  24; 6HR PCP: TRACE;

WISC RAPIDS    CLOUDY    20   9  62 NW9       29.85F WCI   9
6HR MIN TEMP:  19; 6HR MAX TEMP:  20; 6HR PCP: TRACE;

CAMP DOUGLAS   CLOUDY    27  18  69 W10G17    29.85F WCI  17
                                      6HR PCP: TRACE;

$$

WIZ011>013-019>022-031-037>040-048>050-151900-
NORTHEAST WISCONSIN

CITY           SKY/WX    TMP DP  RH WIND       PRES   REMARKS
ANTIGO         CLOUDY    14   6  72 W16       29.78F WCI  -2
SHAWANO        PTSUNNY   21   9  59 NW10G18   29.82F WCI  10
6HR MIN TEMP:  19; 6HR MAX TEMP:  22;

OCONTO         SUNNY     19   8  61 W16       29.81F WCI   5
STURGEON BAY   CLOUDY    21  12  68 W10G21    29.79F WCI  10
6HR MIN TEMP:  18; 6HR MAX TEMP:  21; 6HR PCP: TRACE;

GREEN BAY      PTSUNNY   20   8  60 W14       29.83F WCI   7
6HR MIN TEMP:  18; 6HR MAX TEMP:  21;

MANITOWOC      PTSUNNY   23  12  62 W14       29.83F WCI  11
6HR MIN TEMP:  20; 6HR MAX TEMP:  26; 6HR PCP: TRACE;

APPLETON       PTSUNNY   19   7  58 NW15      29.81F WCI   5
CLINTONVILLE   NOT AVBL
OSHKOSH        CLOUDY    22  11  62 W14G20    29.83F WCI   9
6HR MIN TEMP:  20; 6HR MAX TEMP:  22; 6HR PCP: TRACE;

$$

WIZ032>034-041-042-053>061-151900-
SOUTHWEST WISCONSIN

CITY           SKY/WX    TMP DP  RH WIND       PRES   REMARKS
LA CROSSE      CLOUDY    30  21  69 CALM      29.87F
6HR MIN TEMP:  24; 6HR MAX TEMP:  30;

SPARTA         CLOUDY    26  19  75 W7        29.87F WCI  19
VIROQUA        CLOUDY    28  24  88 CALM      29.85F
BOSCOBEL       CLOUDY    30  22  72 W6        29.90F WCI  24
6HR MIN TEMP:  25; 6HR MAX TEMP:  30;

PRAIRIE DU CHI FLURRIES  30  24  77 SW6       29.90F WCI  24
PLATTEVILLE    CLOUDY    30  25  81 SW14      29.89F WCI  19
$$

WIZ056-057-062-063-064-067-068-151900-
SOUTH CENTRAL WISCONSIN

CITY           SKY/WX    TMP DP  RH WIND       PRES   REMARKS
REEDSBURG      CLOUDY    26  17  68 W12       29.87F WCI  16
BARABOO/DELLS  CLOUDY    26  17  67 W7        29.85F WCI  18
LONE ROCK      NOT AVBL
MINERAL POINT  FLURRIES  30  27  86 W10       29.87F WCI  21
MADISON        CLOUDY    27  16  63 W8        29.87F WCI  19
6HR MIN TEMP:  23; 6HR MAX TEMP:  27; 6HR PCP: TRACE;

MIDDLETON      CLOUDY    29  18  62 W12       29.87F WCI  19
WATERTOWN      CLOUDY    26  16  66 W10       29.86F WCI  16
MONROE         CLOUDY    30  19  64 W18G25    29.88F WCI  18
JANESVILLE     CLOUDY    30  18  59 W12       29.88F WCI  21
$$

WIZ051-052-058>065-066-070>072-151900-
SOUTHEAST WISCONSIN

CITY           SKY/WX    TMP DP  RH WIND       PRES   REMARKS
MILWAUKEE      MOSUNNY   27  14  58 NW24G35   29.86F WCI  12
6HR MIN TEMP:  24; 6HR MAX TEMP:  29; 6HR PCP: TRACE;

WAUKESHA       CLOUDY    25  12  58 W17G28    29.87S WCI  11
MILWAUKEE/TIMM PTSUNNY   27  10  50 W16G24    29.87F WCI  14
RACINE         MOSUNNY   28  13  53 NW16G23   29.88F WCI  16
6HR MIN TEMP:  23; 6HR MAX TEMP:  28; 6HR PCP: TRACE;

BURLINGTON     MOSUNNY   28  17  61 W17       29.88F WCI  16
KENOSHA        PTSUNNY   30  14  51 W17G26    29.87F WCI  18
6HR MIN TEMP:  24; 6HR MAX TEMP:  31; 6HR PCP: TRACE;

FOND DU LAC    MOSUNNY   22   9  57 W12       29.84F WCI  10
6HR MIN TEMP:  22; 6HR MAX TEMP:  23; 6HR PCP: TRACE;

SHEBOYGAN      FLURRIES  22  14  71 W13       29.83F WCI  10
6HR MIN TEMP:  21; 6HR MAX TEMP:  23; 6HR PCP: TRACE;

WEST BEND      CLOUDY    23  14  68 W14G20    29.84F WCI  11
JUNEAU         CLOUDY    22  14  70 W9        29.87F WCI  12
$$

LSZ147-162-151900-
LAKE SUPERIOR

STATION/POSITION TIME  TEMP    WIND        PRES    WAVE
                       AIR SEA DIR/SP/G            HT/PER
                 (UTC) (F)     (DEG/KT/KT) (MB)    (FT/S)
DEVILS ISLAND    1700   15     340/  9/ 13 1012.2F
SAXON HARBOR     1740   17                 1010.8S
$$

LMZ867-665-643>646-151900-
LAKE MICHIGAN

STATION/POSITION TIME  TEMP    WIND        PRES    WAVE
                       AIR SEA DIR/SP/G            HT/PER
                 (UTC) (F)     (DEG/KT/KT) (MB)    (FT/S)
NORTHPORT PIER   1740   22     300/ 11/ 17 1007.5F
KEWAUNEE LAKESHO 1730   20     290/ 10/ 16 1009.0F
SHEBOYGAN LAKESH 1700   23     290/ 12/ 14 1011.5F
PORT WASHINGTON  1740   25     290/  9/ 16 1012.2S
MILWAUKEE LAKESH 1730   26     290/ 15/ 18   N/A
KENOSHA   LAKESH 1700   26     280/ 17/ 23 1012.2
$$

TC  - TEMPERATURE IN CELSIUS
VSB - VISIBILITY IN STATUTE MILES
WCI - WIND CHILL INDEX
HX  - HEAT INDEX





USA.gov is the U.S. government's official web portal to all federal, state and local government web resources and services.